Location: Chevoux
(46.3801°N, 4.9476°E)
Time: 12:55:07
(UTC+00:00)

Altair - Visible Passes

Search period start: 13 May 2021 00:00
Search period end: 23 May 2021 00:00
Orbit: 1501 x 1683 km, 47.2° (Epoch: 12 May)

Date Brightness Start Highest point End Pass type
(mag) Time Alt. Az. Time Alt. Az. Time Alt. Az.
13 May 7.6 01:33:28 10° W 01:43:42 86° N 01:53:41 10° E visible
13 May 8.4 21:06:30 20° SSE 21:10:11 25° SE 21:17:50 10° E visible
13 May 7.6 23:03:41 10° SW 23:13:40 63° SSE 23:23:33 10° ENE visible
14 May 7.6 01:08:13 10° W 01:18:27 87° N 01:28:30 10° E visible
14 May 7.7 03:13:26 10° WNW 03:23:35 84° SSW 03:33:24 10° ESE visible
14 May 8.4 20:37:53 10° S 20:45:08 23° SE 20:52:23 10° E visible
14 May 7.6 22:38:36 10° SW 22:48:29 60° SSE 22:58:20 10° ENE visible
15 May 7.6 00:42:57 10° W 00:53:13 88° N 01:03:16 10° E visible
15 May 7.6 02:48:11 10° WNW 02:58:22 86° SSW 03:08:14 10° ESE visible
15 May 8.5 20:13:16 10° S 20:20:05 21° SE 20:26:54 10° E visible
15 May 7.6 22:13:31 10° SW 22:23:19 57° SSE 22:33:08 10° ENE visible
16 May 7.6 00:17:43 10° WSW 00:27:58 89° NNW 00:38:03 10° E visible
16 May 7.6 02:22:56 10° WNW 02:33:09 88° SSW 02:43:03 10° ESE visible
16 May 8.6 19:48:44 10° SSE 19:55:02 19° SE 20:01:21 10° E visible
16 May 7.7 21:48:27 10° SW 21:58:09 54° SE 22:07:54 10° ENE visible
16 May 7.6 23:52:28 10° WSW 00:02:43 90° SSE 00:12:50 10° E visible
17 May 7.6 01:57:41 10° W 02:07:55 89° SSW 02:17:52 10° ESE visible
17 May 7.7 21:23:24 10° SW 21:33:00 51° SE 21:42:39 10° ENE visible
17 May 7.6 23:27:15 10° WSW 23:37:29 88° SSE 23:47:37 10° E visible
18 May 7.6 01:32:26 10° W 01:42:41 89° NNE 01:52:40 10° ESE visible
18 May 7.8 20:58:23 10° SSW 21:07:52 48° SE 21:17:24 10° ENE visible
18 May 7.6 23:02:01 10° WSW 23:12:14 86° SSE 23:22:24 10° ENE visible
19 May 7.6 01:07:11 10° W 01:17:27 88° N 01:27:28 10° E visible
19 May 7.7 03:12:16 10° WNW 03:22:06 59° SSW 03:31:37 10° SE visible
19 May 7.8 20:33:23 10° SSW 20:42:44 45° SE 20:52:09 10° ENE visible
19 May 7.5 22:36:49 10° WSW 22:47:01 84° SSE 22:57:11 10° ENE visible
20 May 7.6 00:41:55 10° W 00:52:11 87° N 01:02:15 10° E visible
20 May 7.6 02:47:01 10° WNW 02:56:56 62° SSW 03:06:33 10° SE visible
20 May 7.9 20:08:25 10° SSW 20:17:36 42° SE 20:26:53 10° ENE visible
20 May 7.5 22:11:37 10° WSW 22:21:47 82° SSE 22:31:58 10° ENE visible
21 May 7.6 00:16:41 10° W 00:26:57 86° N 00:37:02 10° E visible
21 May 7.6 02:21:47 10° WNW 02:31:46 65° SSW 02:41:28 10° SE visible
21 May 8.0 19:43:29 10° SSW 19:52:29 39° SE 20:01:36 10° ENE visible
21 May 7.6 21:46:26 10° WSW 21:56:34 80° SSE 22:06:44 10° ENE visible
21 May 7.6 23:51:26 10° W 00:01:41 86° N 00:11:49 10° E visible
22 May 7.6 01:56:32 10° WNW 02:06:36 68° SSW 02:16:22 10° SE visible
22 May 7.6 21:21:15 10° WSW 21:31:21 77° SSE 21:41:30 10° ENE visible
22 May 7.6 23:26:11 10° W 23:36:26 85° N 23:46:35 10° E visible
